2023/01/27 00:00:00, 6.8, 0.3
2023/01/27 00:10:00, 6.7, 0.3
2023/01/27 00:20:00, 6.7, 1.0
2023/01/27 00:30:00, 6.7, 1.1
2023/01/27 00:40:00, 6.6, 0.9
2023/01/27 00:50:00, 6.6, 1.2
2023/01/27 01:00:00, 6.6, 1.1
2023/01/27 01:10:00, 6.6, 1.4
2023/01/27 01:20:00, 6.5, 1.0
2023/01/27 01:30:00, 6.5, 0.8
2023/01/27 01:40:00, 6.4, 0.4
2023/01/27 01:50:00, 6.3, 0.4
2023/01/27 02:00:00, 6.3, 0.1
2023/01/27 02:10:00, 6.3, 0.3
2023/01/27 02:20:00, 6.3, 0.0
2023/01/27 02:30:00, 6.3, 0.2
2023/01/27 02:40:00, 6.3, 0.2
2023/01/27 02:50:00, 6.3, 0.2
2023/01/27 03:00:00, 6.3,-0.1
2023/01/27 03:10:00, 6.3,-0.1
2023/01/27 03:20:00, 6.2, 0.1
2023/01/27 03:30:00, 6.2, 0.0
2023/01/27 03:40:00, 6.2,-0.2
2023/01/27 03:50:00, 6.1,-0.4
2023/01/27 04:00:00, 6.1,-0.9
2023/01/27 04:10:00, 6.1,-0.4
2023/01/27 04:20:00, 6.1,-0.5
2023/01/27 04:30:00, 6.0,-0.5
2023/01/27 04:40:00, 6.0,-0.4
2023/01/27 04:50:00, 6.0,-0.6
2023/01/27 05:00:00, 6.0,-0.4
2023/01/27 05:10:00, 6.0,-0.3
2023/01/27 05:20:00, 5.9,-0.4
2023/01/27 05:30:00, 5.9,-0.4
2023/01/27 05:40:00, 5.9,-0.5
2023/01/27 05:50:00, 5.9,-0.4
2023/01/27 06:00:00, 5.8,-0.4
2023/01/27 06:10:00, 5.7,-0.4
2023/01/27 06:20:00, 5.9,-0.3
2023/01/27 06:30:00, 5.9,-0.6
2023/01/27 06:40:00, 5.8,-0.4
2023/01/27 06:50:00, 6.0,-0.4
2023/01/27 07:00:00, 6.1,-0.4
2023/01/27 07:10:00, 5.9,-0.4
2023/01/27 07:20:00, 5.4,-0.4
2023/01/27 07:30:00, 5.4,-0.2
2023/01/27 07:40:00, 5.3, 0.1
2023/01/27 07:50:00, 4.5, 0.4
2023/01/27 08:00:00, 4.4, 0.9
2023/01/27 08:10:00, 4.6, 1.0
2023/01/27 08:20:00, 4.7, 1.4
2023/01/27 08:30:00, 4.7, 1.6
2023/01/27 08:40:00, 4.8, 2.1
2023/01/27 08:50:00, 4.7, 1.7
2023/01/27 09:00:00, 5.0, 2.3
2023/01/27 09:10:00, 4.9, 2.6
2023/01/27 09:20:00, 4.8, 2.9
2023/01/27 09:30:00, 4.9, 2.6
2023/01/27 09:40:00, 4.8, 3.3
2023/01/27 09:50:00, 4.7, 4.0
2023/01/27 10:00:00, 4.7, 3.8
2023/01/27 10:10:00, 4.6, 3.7
2023/01/27 10:20:00, 4.7, 3.3
2023/01/27 10:30:00, 4.6, 4.0
2023/01/27 10:40:00, 4.6, 3.5
2023/01/27 10:50:00, 4.5, 2.9
2023/01/27 11:00:00, 4.5, 3.3
2023/01/27 11:10:00, 4.5, 3.4
2023/01/27 11:20:00, 4.5, 4.5
2023/01/27 11:30:00, 4.5, 5.1
2023/01/27 11:40:00, 4.4, 6.8
2023/01/27 11:50:00, 4.2, 8.0
2023/01/27 12:00:00, 4.1, 8.6
2023/01/27 12:10:00, 4.2, 8.1
2023/01/27 12:20:00, 4.3, 7.9
2023/01/27 12:30:00, 4.0, 8.1
2023/01/27 12:40:00, 3.6, 7.5
2023/01/27 12:50:00, 3.3, 5.8
2023/01/27 13:00:00, 3.2, 5.3
2023/01/27 13:10:00, 3.3, 6.1
2023/01/27 13:20:00, 3.1, 4.5
2023/01/27 13:30:00, 3.1, 2.8
2023/01/27 13:40:00, 2.9, 2.1
2023/01/27 13:50:00, 3.0, 1.6
2023/01/27 14:00:00, 3.3, 1.1
2023/01/27 14:10:00, 3.4, 1.6
2023/01/27 14:20:00, 3.4, 1.7
2023/01/27 14:30:00, 3.4, 1.7
2023/01/27 14:40:00, 3.4, 1.9
2023/01/27 14:50:00, 3.4, 1.9
2023/01/27 15:00:00, 3.4, 1.8
2023/01/27 15:10:00, 3.4, 1.4
2023/01/27 15:20:00, 3.6, 1.0
2023/01/27 15:30:00, 3.6, 1.1
2023/01/27 15:40:00, 3.5, 1.4
2023/01/27 15:50:00, 3.5, 1.6
2023/01/27 16:00:00, 3.6, 1.9
2023/01/27 16:10:00, 3.4, 1.7
2023/01/27 16:20:00, 3.4, 1.6
2023/01/27 16:30:00, 3.4, 1.9
2023/01/27 16:40:00, 3.4, 1.0
2023/01/27 16:50:00, 3.5, 0.6
2023/01/27 17:00:00, 3.5, 1.0
2023/01/27 17:10:00, 3.5, 1.1
2023/01/27 17:20:00, 3.5, 0.7
2023/01/27 17:30:00, 3.5, 0.6
2023/01/27 17:40:00, 3.5, 0.7
2023/01/27 17:50:00, 3.5, 0.7
2023/01/27 18:00:00, 3.4, 0.4
2023/01/27 18:10:00, 3.8, 0.3
2023/01/27 18:20:00, 4.1, 0.2
2023/01/27 18:30:00, 4.5,-0.4
2023/01/27 18:40:00, 5.2,-0.3
2023/01/27 18:50:00, 5.5,-0.3
2023/01/27 19:00:00, 5.8, 0.0
2023/01/27 19:10:00, 5.7, 0.6
2023/01/27 19:20:00, 5.6, 0.6
2023/01/27 19:30:00, 5.9, 0.1
2023/01/27 19:40:00, 6.3, 0.0
2023/01/27 19:50:00, 6.3, 0.4
2023/01/27 20:00:00, 6.3, 0.4
2023/01/27 20:10:00, 6.2, 0.7
2023/01/27 20:20:00, 6.6, 0.1
2023/01/27 20:30:00, 6.8, 0.2
2023/01/27 20:40:00, 6.7, 0.3
2023/01/27 20:50:00, 6.6, 0.3
2023/01/27 21:00:00, 6.8,-0.4
2023/01/27 21:10:00, 7.1,-0.2
2023/01/27 21:20:00, 7.8,-0.3
2023/01/27 21:30:00, 8.9,-0.4
2023/01/27 21:40:00, 9.2,-0.4
2023/01/27 21:50:00, 9.2,-0.3
2023/01/27 22:00:00, 8.9,-0.4
2023/01/27 22:10:00, 9.5,-0.4
2023/01/27 22:20:00, 9.7,-0.4
2023/01/27 22:30:00, 9.7,-0.4
2023/01/27 22:40:00, 9.4,-0.4
2023/01/27 22:50:00, 9.8,-0.3
2023/01/27 23:00:00,10.3,-0.5
2023/01/27 23:10:00,10.7,-0.3
2023/01/27 23:20:00,11.1,-0.4
2023/01/27 23:30:00,11.2,-0.6
2023/01/27 23:40:00,11.1,-0.4
2023/01/27 23:50:00,11.1,-0.8
